Terminal Aerodrome Forecast
Issued by NWS Dodge City, KS

Home | Current Version | Previous Version | Graphics & Text | Print | Product List | Glossary Off
Versions: 1 2 3 4 5 6 7 8 9 10 11 12 13 14 15 16 17 18 19 20 21 22 23 24 25 26 27 28 29 30 31 32 33 34 35 36 37 38 39 40 41 42 43 44 45 46 47 48 49 50

000
FTUS43 KDDC 180847 AAC
TAFDDC
TAF AMD
KDDC 180847Z 1809/1906 16010KT 1SM BR OVC004
      TEMPO 1809/1813 1/4SM FG VV002
     FM181500 15012KT P6SM OVC015
     FM181700 15014G20KT P6SM BKN030
      TEMPO 1820/1824 5SM -TSRA OVC030CB
     FM190100 16008KT P6SM SCT250=

USA.gov is the U.S. government's official web portal to all federal, state and local government web resources and services.